Weather History for Cloquet, MN

Change the Weather History Date:

Thursday, October 4, 2012

  Actual Average Record
Temperature  
Mean Temperature 45 °F -  
Max Temperature 53 °F 56 °F 77 °F (2011)
Min Temperature 37 °F 37 °F 26 °F (2004)
Degree Days  
Heating Degree Days 20    
Moisture  
Dew Point 34 °F    
Average Humidity 65    
Maximum Humidity 76    
Minimum Humidity 46    
Precipitation  
Precipitation 0.00 in - - ()
Sea Level Pressure  
Sea Level Pressure 29.81 in    
Wind  
Wind Speed 11 mph (SSW)    
Max Wind Speed 26 mph    
Max Gust Speed 39 mph    
Visibility 10 miles    
Events Rain    
Averages and records for this station are not official NWS values.
T = Trace of Precipitation, MM = Missing Value Source: NWS Daily Summary

Daily Weather History Graph

Daily Weather History Graph

Search for Another Location

Airport:

Trip Planner

Search our weather history database for the weather conditions in past years. The results will help you decide how hot, cold, wet, or windy it might be!

Date:

Astronomy

Oct. 04, 2012 Rise Set
Actual Time 7:13 AM CDT 6:42 PM CDT
Civil Twilight 6:43 AM CDT 7:13 PM CDT
Nautical Twilight 6:08 AM CDT 7:48 PM CDT
Astronomical Twilight 5:32 AM CDT 8:23 PM CDT
Moon 9:02 PM CDT (10/4) 11:47 AM CDT (10/4)
Length of Visible Light 12h 29m
Length of Day
11h 29m
Waning Gibbous, 82% of the Moon is Illuminated
Oct 4
Waning Gibbous
Oct 8
Last Quarter
Oct 15
New
Oct 21
First Quarter
Oct 29
Full

Hourly Weather History & Observations

Time (CDT) Temp. Windchill Dew Point Humidity Pressure Visibility Wind Dir Wind Speed Gust Speed Precip Events Conditions
12:16 AM 51.8 °F - 41.0 °F 67% 29.88 in 10.0 mi East 3.5 mph - N/A   Clear
12:36 AM 51.8 °F - 41.0 °F 67% 29.87 in 10.0 mi East 3.5 mph - N/A   Clear
12:56 AM 51.8 °F - 42.8 °F 71% 29.87 in 10.0 mi East 3.5 mph - N/A   Clear
1:16 AM 51.8 °F - 42.8 °F 71% 29.86 in 10.0 mi East 4.6 mph - N/A   Scattered Clouds
1:36 AM 51.8 °F - 42.8 °F 71% 29.85 in 10.0 mi East 4.6 mph - N/A   Scattered Clouds
1:56 AM 51.8 °F - 42.8 °F 71% 29.84 in 10.0 mi East 4.6 mph - N/A   Clear
2:16 AM 51.8 °F - 41.0 °F 67% 29.84 in 10.0 mi East 5.8 mph - N/A   Clear
2:36 AM 51.8 °F - 41.0 °F 67% 29.82 in 10.0 mi East 5.8 mph - N/A   Clear
2:56 AM 51.8 °F - 41.0 °F 67% 29.81 in 10.0 mi East 3.5 mph - N/A   Clear
3:16 AM 51.8 °F - 42.8 °F 71% 29.80 in 10.0 mi East 5.8 mph - N/A   Clear
3:36 AM 51.8 °F - 42.8 °F 71% 29.79 in 10.0 mi East 4.6 mph - N/A   Clear
3:56 AM 51.8 °F - 42.8 °F 71% 29.78 in 10.0 mi East 5.8 mph - N/A   Clear
4:16 AM 51.8 °F - 42.8 °F 71% 29.76 in 10.0 mi East 6.9 mph - N/A   Clear
4:36 AM 51.8 °F - 42.8 °F 71% 29.75 in 10.0 mi East 6.9 mph - N/A   Clear
4:56 AM 51.8 °F - 42.8 °F 71% 29.73 in 10.0 mi East 6.9 mph - N/A   Clear
5:16 AM 53.6 °F - 42.8 °F 67% 29.73 in 10.0 mi SE 6.9 mph - N/A   Clear
5:36 AM 53.6 °F - 42.8 °F 67% 29.70 in 10.0 mi ESE 8.1 mph - N/A   Scattered Clouds
5:56 AM 53.6 °F - 44.6 °F 72% 29.70 in 10.0 mi SE 6.9 mph 10.4 mph N/A   Mostly Cloudy
6:16 AM 53.6 °F - 44.6 °F 72% 29.69 in 10.0 mi ESE 10.4 mph - N/A   Mostly Cloudy
6:36 AM 53.6 °F - 44.6 °F 72% 29.67 in 10.0 mi ESE 8.1 mph 17.3 mph N/A   Scattered Clouds
6:56 AM 53.6 °F - 44.6 °F 72% 29.67 in 10.0 mi ESE 9.2 mph 16.1 mph N/A   Clear
7:16 AM 51.8 °F - 44.6 °F 76% 29.67 in 10.0 mi ESE 6.9 mph - N/A   Clear
7:36 AM 53.6 °F - 41.0 °F 62% 29.68 in 10.0 mi South 13.8 mph 21.9 mph N/A   Clear
7:56 AM 50.0 °F - 37.4 °F 62% 29.68 in 10.0 mi South 19.6 mph 33.4 mph N/A   Clear
8:16 AM 48.2 °F - 37.4 °F 66% 29.69 in 10.0 mi South 18.4 mph 28.8 mph N/A   Mostly Cloudy
8:36 AM 48.2 °F - 39.2 °F 71% 29.69 in 10.0 mi SSW 17.3 mph 26.5 mph N/A   Overcast
8:56 AM 48.2 °F - 39.2 °F 71% 29.70 in 10.0 mi SSW 16.1 mph 23.0 mph N/A   Overcast
9:16 AM 48.2 °F - 37.4 °F 66% 29.70 in 10.0 mi South 17.3 mph 25.3 mph N/A   Overcast
9:36 AM 48.2 °F - 37.4 °F 66% 29.70 in 10.0 mi SSW 16.1 mph 24.2 mph N/A   Overcast
9:55 AM 46.4 °F 39.8 °F 37.4 °F 71% 29.70 in 10.0 mi SSW 16.1 mph 26.5 mph N/A   Overcast
10:16 AM 46.4 °F 39.2 °F 37.4 °F 71% 29.71 in 10.0 mi SSW 18.4 mph 24.2 mph N/A   Overcast
10:36 AM 46.4 °F 40.4 °F 37.4 °F 71% 29.71 in 10.0 mi SSW 13.8 mph 28.8 mph N/A   Overcast
10:55 AM 46.4 °F 40.4 °F 37.4 °F 71% 29.72 in 10.0 mi SSW 13.8 mph 26.5 mph N/A   Overcast
11:16 AM 44.6 °F 36.9 °F 35.6 °F 71% 29.73 in 10.0 mi SSW 18.4 mph 27.6 mph N/A   Overcast
11:36 AM 42.8 °F 33.3 °F 35.6 °F 76% 29.74 in 4.0 mi SSW 24.2 mph 29.9 mph N/A   Haze
11:56 AM 42.8 °F 33.8 °F 33.8 °F 70% 29.75 in 10.0 mi SW 21.9 mph 28.8 mph N/A   Overcast
12:16 PM 42.8 °F 34.3 °F 32.0 °F 66% 29.76 in 10.0 mi SW 19.6 mph 26.5 mph N/A   Overcast
12:36 PM 42.8 °F 33.8 °F 30.2 °F 61% 29.78 in 10.0 mi SW 21.9 mph 34.5 mph N/A   Overcast
12:56 PM 42.8 °F 34.5 °F 30.2 °F 61% 29.79 in 10.0 mi WSW 18.4 mph 27.6 mph N/A   Overcast
1:36 PM 42.8 °F 33.5 °F 28.4 °F 57% 29.80 in 10.0 mi WSW 23.0 mph 32.2 mph N/A   Overcast
1:55 PM 42.8 °F 34.0 °F 28.4 °F 57% 29.81 in 10.0 mi SW 20.7 mph 29.9 mph N/A   Overcast
2:16 PM 42.8 °F 33.1 °F 28.4 °F 57% 29.81 in 10.0 mi WSW 25.3 mph 31.1 mph N/A   Overcast
2:36 PM 42.8 °F 33.3 °F 26.6 °F 53% 29.82 in 10.0 mi WSW 24.2 mph 36.8 mph N/A   Overcast
2:55 PM 42.8 °F 33.8 °F 26.6 °F 53% 29.83 in 10.0 mi WSW 21.9 mph 28.8 mph N/A   Overcast
3:16 PM 44.6 °F 37.2 °F 24.8 °F 46% 29.84 in 10.0 mi WSW 17.3 mph 39.1 mph N/A   Overcast
3:36 PM 44.6 °F 35.7 °F 24.8 °F 46% 29.84 in 10.0 mi WSW 24.2 mph 34.5 mph N/A   Overcast
3:56 PM 42.8 °F 33.5 °F 24.8 °F 49% 29.85 in 10.0 mi SW 23.0 mph 35.7 mph N/A   Overcast
4:15 PM 42.8 °F 33.8 °F 26.6 °F 53% 29.86 in 10.0 mi WSW 21.9 mph 34.5 mph N/A   Overcast
4:36 PM 42.8 °F 32.9 °F 26.6 °F 53% 29.86 in 10.0 mi WSW 26.5 mph 32.2 mph N/A   Overcast
4:56 PM 42.8 °F 34.3 °F 26.6 °F 53% 29.87 in 10.0 mi WSW 19.6 mph 27.6 mph N/A   Overcast
5:16 PM 42.8 °F 33.5 °F 26.6 °F 53% 29.88 in 10.0 mi WSW 23.0 mph 32.2 mph N/A   Overcast
5:36 PM 41.0 °F 31.4 °F 26.6 °F 57% 29.89 in 10.0 mi WSW 21.9 mph 29.9 mph N/A   Overcast
5:56 PM 41.0 °F 31.6 °F 26.6 °F 57% 29.89 in 10.0 mi WSW 20.7 mph 29.9 mph N/A   Overcast
6:16 PM 39.2 °F 29.0 °F 26.6 °F 61% 29.90 in 10.0 mi WSW 21.9 mph 29.9 mph N/A   Overcast
6:36 PM 39.2 °F 31.2 °F 28.4 °F 65% 29.90 in 10.0 mi WSW 13.8 mph 25.3 mph N/A   Overcast
6:56 PM 37.4 °F 29.3 °F 30.2 °F 75% 29.91 in 10.0 mi WSW 12.7 mph 18.4 mph N/A Rain Light Rain
7:16 PM 39.2 °F 30.8 °F 28.4 °F 65% 29.91 in 10.0 mi WSW 15.0 mph 29.9 mph N/A   Overcast
7:36 PM 37.4 °F 28.5 °F 26.6 °F 65% 29.92 in 10.0 mi WSW 15.0 mph 34.5 mph N/A Rain Light Rain
7:56 PM 37.4 °F 26.6 °F 26.6 °F 65% 29.92 in 10.0 mi West 21.9 mph 29.9 mph N/A   Overcast
9:16 PM 37.4 °F 27.5 °F 26.6 °F 65% 29.93 in 10.0 mi WSW 18.4 mph 28.8 mph N/A   Overcast
9:36 PM 37.4 °F 28.2 °F 26.6 °F 65% 29.93 in 10.0 mi WSW 16.1 mph 28.8 mph N/A   Overcast
9:56 PM 37.4 °F 28.5 °F 26.6 °F 65% 29.93 in 10.0 mi WSW 15.0 mph 23.0 mph N/A   Overcast
10:16 PM 37.4 °F 27.5 °F 26.6 °F 65% 29.93 in 10.0 mi West 18.4 mph 26.5 mph N/A   Overcast
10:36 PM 37.4 °F 29.3 °F 26.6 °F 65% 29.93 in 10.0 mi WSW 12.7 mph 24.2 mph N/A   Overcast
10:56 PM 37.4 °F 28.2 °F 26.6 °F 65% 29.93 in 10.0 mi West 16.1 mph 27.6 mph N/A   Overcast
11:16 PM 37.4 °F 27.8 °F 26.6 °F 65% 29.93 in 10.0 mi West 17.3 mph 32.2 mph N/A   Overcast
11:36 PM 37.4 °F 27.8 °F 24.8 °F 60% 29.93 in 10.0 mi West 17.3 mph 32.2 mph N/A   Overcast
11:56 PM 37.4 °F 28.5 °F 24.8 °F 60% 29.94 in 10.0 mi West 15.0 mph 36.8 mph N/A   Overcast